This demonstration page uses our WeatherBlox Daily Observations layout. Learn more.

Left ArrowRight Arrow

41.55636, -103.73856

Hourly Observations for August 7, 2021

Temp ( °F °C ) Dew Point ( °F °C ) Humidity (%) Winds ( mph kmh ) Pressure ( in mb ) Visibility ( mi km ) Precip ( " mm )
12:58 am 00:58 Mostly Cloudy 73 22.6 46 7.6 38 38 WNW 8 13 29.80 1009 10 16 0.00 0.00
1:58 am 01:58 Mostly Cloudy 67 19.3 52 11 59 59 W 7 11 29.79 1009 10 16 0.00 0.00
2:58 am 02:58 Mostly Cloudy 65 18.4 52 11.2 63 63 SW 6 9 29.78 1009 10 16 0.00 0.00
3:58 am 03:58 Mostly Cloudy 65 18.5 50 10.1 58 58 W 10 17 29.78 1008 10 16 0.00 0.00
4:58 am 04:58 Mostly Cloudy 62 16.6 51 10.5 67 67 N 5 7 29.81 1010 10 16 0.00 0.00
5:58 am 05:58 Mostly Cloudy 66 18.9 43 6.2 44 44 NW 9 15 29.82 1010 10 16 0.00 0.00
6:58 am 06:58 Hazy 65 18.6 41 5.2 42 42 WNW 9 15 29.85 1011 6 10 0.00 0.00
7:58 am 07:58 Hazy 65 18.3 42 5.7 44 44 NW 9 15 29.85 1011 5 8 0.00 0.00
8:58 am 08:58 Hazy 67 19.6 39 4.1 36 36 WNW 6 9 29.87 1011 5 8 0.00 0.00
9:58 am 09:58 Hazy 71 21.7 39 3.9 31 31 NW 20 31 29.87 1011 4 6 0.00 0.00
10:58 am 10:58 Hazy 74 23.5 39 3.7 28 28 WNW 22 35 29.86 1011 5 8 0.00 0.00
11:58 am 11:58 Sunny 75 24 40 4.3 28 28 WNW 20 31 29.86 1011 7 11 0.00 0.00
12:58 pm 12:58 Sunny 75 24.1 42 5.3 30 30 NW 18 30 29.85 1011 8 13 0.00 0.00
1:58 pm 13:58 Sunny 76 24.3 41 5.1 29 29 NW 12 19 29.85 1011 10 16 0.00 0.00
2:58 pm 14:58 Sunny 77 25.2 45 7 31 31 NNW 10 17 29.83 1010 10 16 0.00 0.00
3:58 pm 15:58 Partly Cloudy 80 26.6 44 6.8 28 28 NNW 15 24 29.82 1010 10 16 0.00 0.00
4:58 pm 16:58 Mostly Cloudy 80 26.6 44 6.6 28 28 N 17 28 29.83 1010 10 16 0.00 0.00
5:58 pm 17:58 Sunny 80 26.6 42 5.6 26 26 NNW 16 26 29.83 1010 10 16 0.00 0.00
6:58 pm 18:58 Sunny 78 25.8 43 6.3 29 29 NW 12 19 29.83 1010 10 16 0.00 0.00
7:58 pm 19:58 Sunny 74 23.4 44 6.7 34 34 NW 7 11 29.83 1010 10 16 0.00 0.00
8:58 pm 20:58 Clear 69 20.3 45 7.1 43 43 SSW 5 7 29.85 1011 10 16 0.00 0.00
9:58 pm 21:58 Clear 68 19.9 44 6.9 43 43 SW 7 11 29.85 1011 10 16 0.00 0.00
10:58 pm 22:58 Clear 67 19.7 44 6.8 43 43 SW 6 9 29.83 1010 10 16 0.00 0.00
11:58 pm 23:58 Clear 58 14.4 47 8.5 68 68 SSW 6 9 29.86 1011 10 16 0.00 0.00

Powered by AerisWeather